STARLINK-31107 (58684 NORAD) Tracking and Keplerian Element Data

This shows tracking and keplerian element data for the satellite.

Feedback or suggestion? Click here.




ElementValue
Catalog58684
NameSTARLINK-31107
Epoch Orbit336
Epoch Day12.91667824
Epoch Year2024
RAAN204.079
Inclination43.0003
Eccentricity0.0001504
Argument of Perigee273.4114
Mean Anonmoly331.3189
Mean Motion15.74102384
Decay Rate-0.0163207
L11 58684U 23211T 24012.91667824 -.01632070 00000+0 -12462-1 0 9998
L22 58684 43.0003 204.0790 0001504 273.4114 331.3189 15.74102384 3362



Live tracking and technical data element details for STARLINK-31107 (NORAD 58684). STARLINK-31107 can be tracked NOW for your location showing map with azimuth and elevation plus other details from your city location.







IsCatalogInMostPopularTable: catalog: 58684, numindb: 23
Update: records affected: 1



GetName: 58684 STARLINK-31107

Hit Count: updated at: Wed, 17 Apr 2024 03:24:39 GMT